Time,TemperatureF,DewpointF,PressureIn,WindDirection,WindDirectionDegrees,WindSpeedMPH,WindSpeedGustMPH,Humidity,HourlyPrecipIn,Conditions,Clouds,dailyrainin,SoftwareType,DateUTC
2013-01-14 00:04:00,60.0,54.0,30.11,SW,219,5.0,-999.0,81,-99.99,,,-99.99,,2013-01-14 05:04:00,
2013-01-14 00:12:00,60.0,54.0,30.11,SW,219,5.0,-999.0,81,-99.99,,,-99.99,,2013-01-14 05:12:00,
2013-01-14 00:22:00,60.0,54.0,30.11,SW,219,5.0,-999.0,81,-99.99,,,-99.99,,2013-01-14 05:22:00,
2013-01-14 00:33:00,59.0,55.0,30.11,SW,236,0.0,-999.0,87,-99.99,,,-99.99,,2013-01-14 05:33:00,
2013-01-14 00:42:00,59.0,55.0,30.11,SW,236,0.0,-999.0,87,-99.99,,,-99.99,,2013-01-14 05:42:00,
2013-01-14 00:53:00,58.0,55.0,30.11,SW,236,0.0,-999.0,91,-99.99,,,-99.99,,2013-01-14 05:53:00,
2013-01-14 01:03:00,57.0,55.0,30.12,SW,236,0.0,-999.0,93,-99.99,,,-99.99,,2013-01-14 06:03:00,
2013-01-14 01:12:00,57.0,55.0,30.12,SW,236,0.0,-999.0,93,-99.99,,,-99.99,,2013-01-14 06:12:00,
2013-01-14 01:22:00,56.0,54.0,30.12,NNW,333,4.0,-999.0,94,-99.99,,,-99.99,,2013-01-14 06:22:00,
2013-01-14 01:33:00,56.0,55.0,30.12,North,360,1.0,-999.0,95,-99.99,,,-99.99,,2013-01-14 06:33:00,
2013-01-14 01:43:00,56.0,55.0,30.12,North,360,1.0,-999.0,95,-99.99,,,-99.99,,2013-01-14 06:43:00,
2013-01-14 01:53:00,56.0,55.0,30.14,NW,315,3.0,-999.0,95,-99.99,,,-99.99,,2013-01-14 06:53:00,
2013-01-14 02:02:00,55.0,54.0,30.13,NW,319,6.0,-999.0,95,-99.99,,,-99.99,,2013-01-14 07:02:00,
2013-01-14 02:12:00,55.0,54.0,30.13,NW,319,6.0,-999.0,95,-99.99,,,-99.99,,2013-01-14 07:12:00,
2013-01-14 02:23:00,55.0,54.0,30.13,NW,323,0.0,-999.0,95,-99.99,,,-99.99,,2013-01-14 07:23:00,
2013-01-14 02:33:00,55.0,54.0,30.13,NW,323,0.0,-999.0,96,-99.99,,,-99.99,,2013-01-14 07:33:00,
2013-01-14 02:43:00,55.0,54.0,30.13,NW,323,0.0,-999.0,96,-99.99,,,-99.99,,2013-01-14 07:43:00,
2013-01-14 02:53:00,55.0,54.0,30.12,WNW,294,2.0,-999.0,95,-99.99,,,-99.99,,2013-01-14 07:53:00,
2013-01-14 03:02:00,55.0,54.0,30.12,WNW,294,0.0,-999.0,95,-99.99,,,-99.99,,2013-01-14 08:02:00,
2013-01-14 03:12:00,55.0,54.0,30.12,WNW,294,0.0,-999.0,95,-99.99,,,-99.99,,2013-01-14 08:12:00,
2013-01-14 03:22:00,55.0,54.0,30.11,ENE,78,1.0,-999.0,96,-99.99,,,-99.99,,2013-01-14 08:22:00,
2013-01-14 03:33:00,55.0,54.0,30.11,ENE,78,1.0,-999.0,96,-99.99,,,-99.99,,2013-01-14 08:33:00,
2013-01-14 03:42:00,55.0,54.0,30.11,ENE,78,1.0,-999.0,96,-99.99,,,-99.99,,2013-01-14 08:42:00,
2013-01-14 03:53:00,54.0,53.0,30.10,ESE,122,1.0,-999.0,97,-99.99,,,-99.99,,2013-01-14 08:53:00,
2013-01-14 04:03:00,54.0,53.0,30.11,ESE,122,0.0,-999.0,97,-99.99,,,-99.99,,2013-01-14 09:03:00,
2013-01-14 04:12:00,54.0,53.0,30.11,ESE,122,0.0,-999.0,97,-99.99,,,-99.99,,2013-01-14 09:12:00,
2013-01-14 04:23:00,54.0,53.0,30.11,ESE,122,0.0,-999.0,97,-99.99,,,-99.99,,2013-01-14 09:23:00,
2013-01-14 04:33:00,54.0,53.0,30.11,ESE,122,0.0,-999.0,97,-99.99,,,-99.99,,2013-01-14 09:33:00,
2013-01-14 04:43:00,54.0,53.0,30.11,ESE,122,0.0,-999.0,97,-99.99,,,-99.99,,2013-01-14 09:43:00,
2013-01-14 04:53:00,54.0,53.0,30.11,ESE,122,0.0,-999.0,97,-99.99,,,-99.99,,2013-01-14 09:53:00,
2013-01-14 05:02:00,54.0,53.0,30.11,ESE,122,0.0,-999.0,98,-99.99,,,-99.99,,2013-01-14 10:02:00,
2013-01-14 05:12:00,54.0,53.0,30.11,ESE,122,0.0,-999.0,98,-99.99,,,-99.99,,2013-01-14 10:12:00,
2013-01-14 05:23:00,54.0,53.0,30.10,ESE,122,0.0,-999.0,97,-99.99,,,-99.99,,2013-01-14 10:23:00,
2013-01-14 05:32:00,54.0,53.0,30.10,ESE,122,0.0,-999.0,98,-99.99,,,-99.99,,2013-01-14 10:32:00,
2013-01-14 05:42:00,54.0,53.0,30.10,ESE,122,0.0,-999.0,98,-99.99,,,-99.99,,2013-01-14 10:42:00,
2013-01-14 05:53:00,54.0,53.0,30.10,ESE,122,0.0,-999.0,98,-99.99,,,-99.99,,2013-01-14 10:53:00,
2013-01-14 06:02:00,54.0,53.0,30.11,ESE,122,0.0,-999.0,98,-99.99,,,-99.99,,2013-01-14 11:02:00,
2013-01-14 06:12:00,54.0,53.0,30.11,ESE,122,0.0,-999.0,98,-99.99,,,-99.99,,2013-01-14 11:12:00,
2013-01-14 06:22:00,54.0,53.0,30.12,ESE,121,0.0,-999.0,98,-99.99,,,-99.99,,2013-01-14 11:22:00,
2013-01-14 06:33:00,54.0,53.0,30.11,ESE,121,0.0,-999.0,98,-99.99,,,-99.99,,2013-01-14 11:33:00,
2013-01-14 06:43:00,54.0,53.0,30.11,ESE,121,0.0,-999.0,98,-99.99,,,-99.99,,2013-01-14 11:43:00,
2013-01-14 06:53:00,55.0,54.0,30.13,East,83,1.0,-999.0,98,-99.99,,,-99.99,,2013-01-14 11:53:00,
2013-01-14 07:03:00,55.0,54.0,30.14,East,84,0.0,-999.0,98,-99.99,,,-99.99,,2013-01-14 12:03:00,
2013-01-14 07:12:00,55.0,54.0,30.14,East,84,0.0,-999.0,98,-99.99,,,-99.99,,2013-01-14 12:12:00,
2013-01-14 07:23:00,55.0,54.0,30.12,East,83,0.0,-999.0,98,-99.99,,,-99.99,,2013-01-14 12:23:00,
2013-01-14 07:33:00,54.0,53.0,30.13,ESE,116,1.0,-999.0,98,-99.99,,,-99.99,,2013-01-14 12:33:00,
2013-01-14 07:43:00,54.0,53.0,30.13,ESE,116,1.0,-999.0,98,-99.99,,,-99.99,,2013-01-14 12:43:00,
2013-01-14 07:53:00,54.0,53.0,30.13,ESE,116,0.0,-999.0,98,-99.99,,,-99.99,,2013-01-14 12:53:00,
2013-01-14 08:03:00,54.0,53.0,30.14,ESE,116,0.0,-999.0,98,-99.99,,,-99.99,,2013-01-14 13:03:00,
2013-01-14 08:13:00,54.0,53.0,30.14,ESE,116,0.0,-999.0,98,-99.99,,,-99.99,,2013-01-14 13:13:00,
2013-01-14 08:23:00,54.0,53.0,30.14,ESE,116,0.0,-999.0,98,-99.99,,,-99.99,,2013-01-14 13:23:00,
2013-01-14 08:33:00,54.0,53.0,30.14,ESE,116,0.0,-999.0,98,-99.99,,,-99.99,,2013-01-14 13:33:00,
2013-01-14 08:43:00,54.0,53.0,30.14,ESE,116,0.0,-999.0,98,-99.99,,,-99.99,,2013-01-14 13:43:00,
2013-01-14 08:53:00,54.0,53.0,30.16,WSW,237,1.0,-999.0,98,-99.99,,,-99.99,,2013-01-14 13:53:00,
2013-01-14 09:03:00,54.0,53.0,30.17,WSW,253,0.0,-999.0,98,-99.99,,,-99.99,,2013-01-14 14:03:00,
2013-01-14 09:13:00,54.0,53.0,30.17,WSW,253,0.0,-999.0,98,-99.99,,,-99.99,,2013-01-14 14:13:00,
2013-01-14 09:23:00,54.0,53.0,30.17,North,350,2.0,-999.0,98,-99.99,,,-99.99,,2013-01-14 14:23:00,
2013-01-14 09:33:00,53.0,52.0,30.18,North,350,1.0,-999.0,97,-99.99,,,-99.99,,2013-01-14 14:33:00,
2013-01-14 09:43:00,53.0,52.0,30.18,North,350,1.0,-999.0,97,-99.99,,,-99.99,,2013-01-14 14:43:00,
2013-01-14 09:53:00,52.0,51.0,30.17,North,350,0.0,-999.0,97,-99.99,,,-99.99,,2013-01-14 14:53:00,
2013-01-14 10:03:00,52.0,51.0,30.17,North,349,0.0,-999.0,98,-99.99,,,-99.99,,2013-01-14 15:03:00,
2013-01-14 10:12:00,52.0,51.0,30.17,North,349,0.0,-999.0,98,-99.99,,,-99.99,,2013-01-14 15:12:00,
2013-01-14 10:23:00,51.0,50.0,30.19,NNW,338,1.0,-999.0,98,-99.99,,,-99.99,,2013-01-14 15:23:00,
2013-01-14 10:33:00,51.0,50.0,30.19,NNW,333,4.0,-999.0,97,-99.99,,,-99.99,,2013-01-14 15:33:00,
2013-01-14 10:43:00,51.0,50.0,30.19,NNW,333,4.0,-999.0,97,-99.99,,,-99.99,,2013-01-14 15:43:00,
2013-01-14 10:53:00,50.0,49.0,30.20,NNW,333,2.0,-999.0,97,-99.99,,,-99.99,,2013-01-14 15:53:00,
2013-01-14 11:03:00,50.0,49.0,30.19,NNW,333,0.0,-999.0,97,-99.99,,,-99.99,,2013-01-14 16:03:00,
2013-01-14 11:12:00,50.0,49.0,30.19,NNW,333,0.0,-999.0,97,-99.99,,,-99.99,,2013-01-14 16:12:00,
2013-01-14 11:23:00,50.0,49.0,30.19,NNW,333,0.0,-999.0,97,-99.99,,,-99.99,,2013-01-14 16:23:00,
2013-01-14 11:33:00,51.0,50.0,30.18,NNW,333,1.0,-999.0,98,-99.99,,,-99.99,,2013-01-14 16:33:00,
2013-01-14 11:43:00,51.0,50.0,30.18,NNW,333,1.0,-999.0,98,-99.99,,,-99.99,,2013-01-14 16:43:00,
2013-01-14 11:53:00,51.0,50.0,30.19,NNW,330,1.0,-999.0,98,-99.99,,,-99.99,,2013-01-14 16:53:00,
2013-01-14 12:03:00,50.0,49.0,30.19,NNE,26,3.0,-999.0,97,-99.99,,,-99.99,,2013-01-14 17:03:00,
2013-01-14 12:12:00,50.0,49.0,30.19,NNE,26,3.0,-999.0,97,-99.99,,,-99.99,,2013-01-14 17:12:00,
2013-01-14 12:23:00,49.0,48.0,30.19,NNW,344,4.0,-999.0,96,-99.99,,,-99.99,,2013-01-14 17:23:00,
2013-01-14 12:33:00,49.0,48.0,30.18,NNE,14,0.0,-999.0,96,-99.99,,,-99.99,,2013-01-14 17:33:00,
2013-01-14 12:43:00,49.0,48.0,30.18,NNE,14,0.0,-999.0,96,-99.99,,,-99.99,,2013-01-14 17:43:00,
2013-01-14 12:54:00,49.0,48.0,30.18,NNE,14,1.0,-999.0,97,-99.99,,,-99.99,,2013-01-14 17:54:00,
2013-01-14 13:03:00,49.0,48.0,30.17,NNW,336,0.0,-999.0,96,-99.99,,,-99.99,,2013-01-14 18:03:00,
2013-01-14 13:13:00,49.0,48.0,30.17,NNW,336,0.0,-999.0,96,-99.99,,,-99.99,,2013-01-14 18:13:00,
2013-01-14 13:23:00,49.0,48.0,30.15,SE,130,1.0,-999.0,97,-99.99,,,-99.99,,2013-01-14 18:23:00,
2013-01-14 13:33:00,49.0,48.0,30.16,SE,130,0.0,-999.0,97,-99.99,,,-99.99,,2013-01-14 18:33:00,
2013-01-14 13:43:00,49.0,48.0,30.16,SE,130,0.0,-999.0,97,-99.99,,,-99.99,,2013-01-14 18:43:00,
2013-01-14 13:53:00,49.0,48.0,30.16,SSW,206,0.0,-999.0,98,-99.99,,,-99.99,,2013-01-14 18:53:00,
2013-01-14 14:03:00,49.0,48.0,30.15,SSW,206,0.0,-999.0,97,-99.99,,,-99.99,,2013-01-14 19:03:00,
2013-01-14 14:13:00,49.0,48.0,30.15,SSW,206,0.0,-999.0,97,-99.99,,,-99.99,,2013-01-14 19:13:00,
2013-01-14 14:22:00,49.0,48.0,30.14,South,186,0.0,-999.0,97,-99.99,,,-99.99,,2013-01-14 19:22:00,
2013-01-14 14:33:00,49.0,48.0,30.15,South,186,1.0,-999.0,97,-99.99,,,-99.99,,2013-01-14 19:33:00,
2013-01-14 14:43:00,49.0,48.0,30.15,South,186,1.0,-999.0,97,-99.99,,,-99.99,,2013-01-14 19:43:00,
2013-01-14 14:53:00,49.0,48.0,30.16,SSW,196,1.0,-999.0,97,-99.99,,,-99.99,,2013-01-14 19:53:00,
2013-01-14 15:03:00,49.0,48.0,30.15,SSW,196,1.0,-999.0,98,-99.99,,,-99.99,,2013-01-14 20:03:00,
2013-01-14 15:13:00,49.0,48.0,30.15,SSW,196,1.0,-999.0,98,-99.99,,,-99.99,,2013-01-14 20:13:00,
2013-01-14 15:23:00,49.0,48.0,30.15,SSW,196,1.0,-999.0,98,-99.99,,,-99.99,,2013-01-14 20:23:00,
2013-01-14 15:33:00,49.0,48.0,30.16,WSW,238,0.0,-999.0,98,-99.99,,,-99.99,,2013-01-14 20:33:00,
2013-01-14 15:43:00,49.0,48.0,30.16,WSW,238,0.0,-999.0,98,-99.99,,,-99.99,,2013-01-14 20:43:00,
2013-01-14 15:53:00,49.0,48.0,30.16,WSW,238,1.0,-999.0,98,-99.99,,,-99.99,,2013-01-14 20:53:00,
2013-01-14 16:03:00,49.0,48.0,30.19,NW,314,3.0,-999.0,98,-99.99,,,-99.99,,2013-01-14 21:03:00,
2013-01-14 16:13:00,49.0,48.0,30.19,NW,314,3.0,-999.0,98,-99.99,,,-99.99,,2013-01-14 21:13:00,
2013-01-14 16:23:00,50.0,49.0,30.19,NW,314,1.0,-999.0,98,-99.99,,,-99.99,,2013-01-14 21:23:00,
2013-01-14 16:33:00,50.0,49.0,30.19,NW,314,1.0,-999.0,98,-99.99,,,-99.99,,2013-01-14 21:33:00,
2013-01-14 16:43:00,50.0,49.0,30.19,NW,314,1.0,-999.0,98,-99.99,,,-99.99,,2013-01-14 21:43:00,
2013-01-14 16:53:00,50.0,49.0,30.19,NW,314,0.0,-999.0,98,-99.99,,,-99.99,,2013-01-14 21:53:00,
2013-01-14 17:03:00,50.0,49.0,30.19,NW,314,0.0,-999.0,98,-99.99,,,-99.99,,2013-01-14 22:03:00,
2013-01-14 17:12:00,50.0,49.0,30.19,NW,314,0.0,-999.0,98,-99.99,,,-99.99,,2013-01-14 22:12:00,
2013-01-14 17:23:00,49.0,48.0,30.19,NW,314,0.0,-999.0,98,-99.99,,,-99.99,,2013-01-14 22:23:00,
2013-01-14 17:33:00,49.0,48.0,30.20,NW,314,0.0,-999.0,98,-99.99,,,-99.99,,2013-01-14 22:33:00,
2013-01-14 17:43:00,49.0,48.0,30.20,NW,314,0.0,-999.0,98,-99.99,,,-99.99,,2013-01-14 22:43:00,
2013-01-14 17:53:00,49.0,48.0,30.21,NW,314,0.0,-999.0,98,-99.99,,,-99.99,,2013-01-14 22:53:00,
2013-01-14 18:03:00,49.0,48.0,30.22,NW,314,0.0,-999.0,98,-99.99,,,-99.99,,2013-01-14 23:03:00,
2013-01-14 18:12:00,49.0,48.0,30.22,NW,314,0.0,-999.0,98,-99.99,,,-99.99,,2013-01-14 23:12:00,
2013-01-14 18:23:00,49.0,48.0,30.21,NW,314,0.0,-999.0,98,-99.99,,,-99.99,,2013-01-14 23:23:00,
2013-01-14 18:33:00,49.0,48.0,30.22,NW,314,0.0,-999.0,98,-99.99,,,-99.99,,2013-01-14 23:33:00,
2013-01-14 18:43:00,49.0,48.0,30.22,NW,314,0.0,-999.0,98,-99.99,,,-99.99,,2013-01-14 23:43:00,
2013-01-14 18:53:00,49.0,48.0,30.22,NW,314,0.0,-999.0,98,-99.99,,,-99.99,,2013-01-14 23:53:00,
2013-01-14 19:03:00,49.0,48.0,30.22,NW,314,0.0,-999.0,98,-99.99,,,-99.99,,2013-01-15 00:03:00,
2013-01-14 19:12:00,49.0,48.0,30.22,NW,314,0.0,-999.0,98,-99.99,,,-99.99,,2013-01-15 00:12:00,
2013-01-14 19:23:00,49.0,48.0,30.22,NW,314,0.0,-999.0,98,-99.99,,,-99.99,,2013-01-15 00:23:00,
2013-01-14 19:33:00,49.0,48.0,30.22,NW,314,0.0,-999.0,98,-99.99,,,-99.99,,2013-01-15 00:33:00,
2013-01-14 19:43:00,49.0,48.0,30.22,NW,314,0.0,-999.0,98,-99.99,,,-99.99,,2013-01-15 00:43:00,
2013-01-14 19:53:00,49.0,48.0,30.21,NW,314,1.0,-999.0,98,-99.99,,,-99.99,,2013-01-15 00:53:00,
2013-01-14 20:02:00,49.0,48.0,30.22,NW,314,0.0,-999.0,98,-99.99,,,-99.99,,2013-01-15 01:02:00,
2013-01-14 20:12:00,48.0,47.0,30.23,North,351,2.0,-999.0,98,-99.99,,,-99.99,,2013-01-15 01:12:00,
2013-01-14 20:22:00,48.0,47.0,30.23,North,351,2.0,-999.0,98,-99.99,,,-99.99,,2013-01-15 01:22:00,
2013-01-14 20:32:00,47.0,46.0,30.24,NNW,331,3.0,-999.0,98,-99.99,,,-99.99,,2013-01-15 01:32:00,
2013-01-14 20:43:00,47.0,46.0,30.24,NNW,331,3.0,-999.0,98,-99.99,,,-99.99,,2013-01-15 01:43:00,
2013-01-14 20:52:00,46.0,45.0,30.25,NW,306,5.0,-999.0,98,-99.99,,,-99.99,,2013-01-15 01:52:00,
2013-01-14 21:02:00,46.0,45.0,30.25,West,273,4.0,-999.0,97,-99.99,,,-99.99,,2013-01-15 02:02:00,
2013-01-14 21:12:00,46.0,45.0,30.25,West,273,4.0,-999.0,97,-99.99,,,-99.99,,2013-01-15 02:12:00,
2013-01-14 21:23:00,46.0,45.0,30.25,NW,304,2.0,-999.0,96,-99.99,,,-99.99,,2013-01-15 02:23:00,
2013-01-14 21:32:00,45.0,44.0,30.24,NNE,24,6.0,-999.0,95,-99.99,,,-99.99,,2013-01-15 02:32:00,
2013-01-14 21:42:00,45.0,44.0,30.24,NNE,24,6.0,-999.0,95,-99.99,,,-99.99,,2013-01-15 02:42:00,
2013-01-14 21:53:00,44.0,43.0,30.26,NNW,328,3.0,-999.0,95,-99.99,,,-99.99,,2013-01-15 02:53:00,
2013-01-14 22:03:00,43.0,42.0,30.27,NNE,22,5.0,-999.0,95,-99.99,,,-99.99,,2013-01-15 03:03:00,
2013-01-14 22:12:00,43.0,42.0,30.27,NNE,22,5.0,-999.0,95,-99.99,,,-99.99,,2013-01-15 03:12:00,
2013-01-14 22:22:00,42.0,41.0,30.29,NNW,333,6.0,-999.0,96,-99.99,,,-99.99,,2013-01-15 03:22:00,
2013-01-14 22:33:00,42.0,41.0,30.27,NNW,339,1.0,-999.0,96,-99.99,,,-99.99,,2013-01-15 03:33:00,
2013-01-14 22:42:00,42.0,41.0,30.27,NNW,339,1.0,-999.0,96,-99.99,,,-99.99,,2013-01-15 03:42:00,
2013-01-14 22:53:00,42.0,41.0,30.27,North,9,2.0,-999.0,97,-99.99,,,-99.99,,2013-01-15 03:53:00,
2013-01-14 23:02:00,42.0,41.0,30.28,NW,317,1.0,-999.0,97,-99.99,,,-99.99,,2013-01-15 04:02:00,
2013-01-14 23:12:00,42.0,41.0,30.28,NW,317,1.0,-999.0,97,-99.99,,,-99.99,,2013-01-15 04:12:00,
2013-01-14 23:22:00,42.0,41.0,30.27,NW,319,1.0,-999.0,97,-99.99,,,-99.99,,2013-01-15 04:22:00,
2013-01-14 23:32:00,42.0,41.0,30.28,NW,319,1.0,-999.0,97,-99.99,,,-99.99,,2013-01-15 04:32:00,
2013-01-14 23:42:00,42.0,41.0,30.28,NW,319,1.0,-999.0,97,-99.99,,,-99.99,,2013-01-15 04:42:00,
2013-01-14 23:52:00,42.0,41.0,30.26,NW,319,0.0,-999.0,97,-99.99,,,-99.99,,2013-01-15 04:52:00,